GW2987 Weather Reports


time (UTC)temp
F
wind
direction
speed
knots
gust
knots
rain 1hr
in
rain 24hr
in
rain mn
in
humidity
%
barometer
mb
20260503053041 78 238 1.7 4.3 0.00 0.00 0.00 78 1013.6
20260503052524 78 207 0.0 4.3 0.00 0.00 0.00 78 1013.9
20260503052025 78 235 0.0 4.3 0.00 0.00 0.00 78 1013.9
20260503051536 78 214 1.7 4.3 0.00 0.00 0.00 78 1014.1
20260503051024 78 282 0.9 3.5 0.00 0.00 0.00 79 1014.1
20260503050525 78 258 1.7 3.5 0.00 0.00 0.00 79 1014.0
20260503050040 78 246 0.9 3.5 0.00 0.00 0.00 79 1014.0
20260503045525 79 0 0.0 2.6 0.00 0.00 0.00 80 1014.0
20260503045025 79 236 0.9 5.2 0.00 0.00 0.00 80 1014.1
20260503044538 79 264 2.6 5.2 0.00 0.00 0.00 81 1014.1
20260503044025 79 216 1.7 4.3 0.00 0.00 0.00 81 1014.2
20260503043525 79 217 0.9 3.5 0.00 0.00 0.00 81 1014.2
20260503043038 79 230 0.9 3.5 0.00 0.00 0.00 81 1014.2
20260503042525 79 269 0.9 4.3 0.00 0.00 0.00 81 1014.1
20260503042025 79 227 1.7 4.3 0.00 0.00 0.00 80 1014.0
20260503041536 79 261 1.7 4.3 0.00 0.00 0.00 80 1013.9
20260503041027 79 240 1.7 3.5 0.00 0.00 0.00 80 1014.0
20260503040524 79 132 1.7 3.5 0.00 0.00 0.00 79 1014.0
20260503040039 79 238 1.7 4.3 0.00 0.00 0.00 79 1013.8
20260503035525 79 244 0.9 5.2 0.00 0.00 0.00 79 1013.7
20260503035025 80 241 0.9 5.2 0.00 0.00 0.00 79 1014.0
20260503034539 80 245 2.6 5.2 0.00 0.00 0.00 79 1014.0
20260503034025 80 242 1.7 6.1 0.00 0.00 0.00 78 1014.0
20260503033524 80 270 0.9 6.1 0.00 0.00 0.00 78 1013.9
20260503033038 80 241 1.7 6.1 0.00 0.00 0.00 78 1013.8
20260503032524 80 274 2.6 6.1 0.00 0.00 0.00 78 1013.6
20260503032024 80 281 1.7 6.1 0.00 0.00 0.00 77 1013.5
20260503031543 80 242 0.9 4.3 0.00 0.00 0.00 77 1013.7
20260503031025 80 283 0.9 5.2 0.00 0.00 0.00 76 1013.5
20260503030526 80 252 0.9 5.2 0.00 0.00 0.00 76 1013.5
20260503030045 80 229 2.6 5.2 0.00 0.00 0.00 76 1013.5
20260503025526 80 263 1.7 5.2 0.00 0.00 0.00 75 1013.6
20260503025026 80 306 1.7 5.2 0.00 0.00 0.00 75 1013.6
20260503024540 80 276 1.7 6.1 0.00 0.00 0.00 75 1013.6
20260503024026 81 234 1.7 6.1 0.00 0.00 0.00 74 1013.6
20260503023525 81 297 0.9 4.3 0.00 0.00 0.00 74 1013.7
20260503023039 81 250 2.6 6.1 0.00 0.00 0.00 73 1013.6
20260503022524 81 248 2.6 6.1 0.00 0.00 0.00 73 1013.6
20260503022024 81 241 1.7 6.1 0.00 0.00 0.00 73 1013.4
20260503021538 81 259 2.6 6.1 0.00 0.00 0.00 73 1013.5
20260503021026 81 261 2.6 6.1 0.00 0.00 0.00 72 1013.4
20260503020525 81 247 1.7 7.0 0.00 0.00 0.00 72 1013.4
20260503020038 81 239 1.7 7.0 0.00 0.00 0.00 71 1013.3
20260503015526 81 231 2.6 6.1 0.00 0.00 0.00 71 1013.1
20260503015030 82 252 1.7 6.1 0.00 0.00 0.00 71 1013.0
20260503014536 82 235 2.6 5.2 0.00 0.00 0.00 70 1013.2
20260503014026 82 0 1.7 7.0 0.00 0.00 0.00 70 1013.1
20260503013526 82 217 2.6 7.0 0.00 0.00 0.00 69 1013.0
20260503013037 82 269 0.9 5.2 0.00 0.00 0.00 68 1013.1
20260503012525 82 302 1.7 5.2 0.00 0.00 0.00 67 1012.9
20260503012025 83 251 2.6 5.2 0.00 0.00 0.00 66 1012.9
20260503011539 83 254 2.6 7.8 0.00 0.00 0.00 65 1012.8
20260503011024 83 256 3.5 7.8 0.00 0.00 0.00 65 1012.8
20260503010526 83 269 3.5 7.0 0.00 0.00 0.00 64 1012.7
20260503010039 83 249 3.5 8.7 0.00 0.00 0.00 64 1012.7
20260503005525 83 251 2.6 8.7 0.00 0.00 0.00 63 1012.7
20260503005028 84 243 1.7 8.7 0.00 0.00 0.00 62 1012.5
20260503004537 84 257 2.6 8.7 0.00 0.00 0.00 62 1012.7
20260503004023 84 295 2.6 8.7 0.00 0.00 0.00 61 1012.5
20260503003523 84 232 1.7 7.0 0.00 0.00 0.00 60 1012.5
20260503003041 84 221 3.5 8.7 0.00 0.00 0.00 60 1012.4
20260503002523 85 249 3.5 9.6 0.00 0.00 0.00 59 1012.3
20260503002023 85 257 3.5 9.6 0.00 0.00 0.00 58 1012.2
20260503001539 85 255 3.5 13.0 0.00 0.00 0.00 58 1012.2
20260503001022 85 256 3.5 13.0 0.00 0.00 0.00 57 1012.2
20260503000522 86 293 2.6 9.6 0.00 0.00 0.00 56 1012.1
20260503000039 86 290 4.3 9.6 0.00 0.00 0.00 55 1012.1
20260502235523 86 278 2.6 9.6 0.00 0.00 0.00 54 1012.1
20260502235022 87 312 3.5 9.6 0.00 0.00 0.00 53 1012.1
20260502234549 87 200 3.5 7.8 0.00 0.00 0.00 52 1011.9
20260502234026 87 228 3.5 8.7 0.00 0.00 0.00 50 1011.9
20260502233522 88 240 4.3 9.6 0.00 0.00 0.00 49 1011.7
20260502233038 88 347 3.5 9.6 0.00 0.00 0.00 48 1011.6
20260502232523 88 271 2.6 9.6 0.00 0.00 0.00 47 1011.5
20260502232023 89 307 1.7 8.7 0.00 0.00 0.00 46 1011.4
20260502231536 89 271 3.5 6.1 0.00 0.00 0.00 45 1011.3
20260502231023 89 257 2.6 6.1 0.00 0.00 0.00 45 1011.2
20260502230524 89 280 2.6 6.1 0.00 0.00 0.00 44 1011.1
20260502230042 90 274 2.6 7.8 0.00 0.00 0.00 44 1011.0
20260502225522 90 227 2.6 7.8 0.00 0.00 0.00 43 1010.9
20260502225022 90 252 4.3 7.8 0.00 0.00 0.00 42 1010.9
20260502224538 91 224 1.7 7.0 0.00 0.00 0.00 42 1010.8
20260502224023 91 238 1.7 7.8 0.00 0.00 0.00 42 1010.7
20260502223523 92 191 2.6 7.8 0.00 0.00 0.00 41 1010.7
20260502223037 92 255 2.6 7.8 0.00 0.00 0.00 41 1010.7
20260502222522 92 218 2.6 10.4 0.00 0.00 0.00 40 1010.7
20260502222022 92 275 4.3 10.4 0.00 0.00 0.00 40 1010.7
20260502221536 92 290 3.5 7.0 0.00 0.00 0.00 40 1010.7
20260502221023 93 242 3.5 7.8 0.00 0.00 0.00 40 1010.7
20260502220523 93 250 3.5 8.7 0.00 0.00 0.00 39 1010.7
20260502220035 93 176 3.5 10.4 0.00 0.00 0.00 40 1010.6
20260502215522 93 264 4.3 10.4 0.00 0.00 0.00 40 1010.6
20260502215022 93 251 3.5 11.3 0.00 0.00 0.00 39 1010.6
20260502214543 93 226 4.3 11.3 0.00 0.00 0.00 40 1010.6
20260502214023 93 248 4.3 9.6 0.00 0.00 0.00 39 1010.3
20260502213525 93 263 4.3 10.4 0.00 0.00 0.00 40 1010.4
20260502213037 93 256 4.3 10.4 0.00 0.00 0.00 39 1010.4
20260502212525 93 239 3.5 10.4 0.00 0.00 0.00 39 1010.5
20260502212025 93 259 5.2 10.4 0.00 0.00 0.00 39 1010.3
20260502211541 93 264 4.3 10.4 0.00 0.00 0.00 38 1010.3
20260502211025 94 224 5.2 13.9 0.00 0.00 0.00 38 1010.3
20260502210524 93 233 3.5 13.9 0.00 0.00 0.00 40 1010.3
20260502210041 93 285 6.1 13.9 0.00 0.00 0.00 38 1010.2
20260502205525 94 275 5.2 12.2 0.00 0.00 0.00 38 1010.3
20260502205025 94 146 3.5 12.2 0.00 0.00 0.00 38 1010.3
20260502204539 94 249 3.5 11.3 0.00 0.00 0.00 39 1010.3
20260502204026 94 243 4.3 11.3 0.00 0.00 0.00 40 1010.4
20260502203525 94 250 4.3 11.3 0.00 0.00 0.00 41 1010.3
20260502203040 94 229 4.3 13.0 0.00 0.00 0.00 41 1010.4
20260502202527 93 293 5.2 13.0 0.00 0.00 0.00 41 1010.4
20260502202025 94 252 3.5 12.2 0.00 0.00 0.00 41 1010.3
20260502201545 94 291 4.3 11.3 0.00 0.00 0.00 40 1010.4
20260502201025 94 252 2.6 13.9 0.00 0.00 0.00 41 1010.6
20260502200525 93 249 5.2 13.9 0.00 0.00 0.00 41 1010.6
20260502200036 93 237 6.1 14.8 0.00 0.00 0.00 40 1010.6
20260502195525 93 269 4.3 14.8 0.00 0.00 0.00 41 1010.5
20260502195024 94 271 4.3 14.8 0.00 0.00 0.00 43 1010.7
20260502194541 94 295 7.0 14.8 0.00 0.00 0.00 42 1010.8
20260502194024 94 291 4.3 12.2 0.00 0.00 0.00 42 1010.6
20260502193525 94 267 4.3 12.2 0.00 0.00 0.00 42 1010.7
20260502193044 94 292 4.3 12.2 0.00 0.00 0.00 44 1010.8
20260502192528 94 262 6.1 12.2 0.00 0.00 0.00 42 1010.8
20260502192025 94 202 4.3 14.8 0.00 0.00 0.00 42 1010.8
20260502191544 94 239 3.5 14.8 0.00 0.00 0.00 44 1010.8
20260502191025 94 293 7.0 14.8 0.00 0.00 0.00 43 1010.8
20260502190525 94 234 5.2 15.6 0.00 0.00 0.00 42 1010.9
20260502190037 94 249 6.1 15.6 0.00 0.00 0.00 42 1011.0
20260502185524 94 191 5.2 15.6 0.00 0.00 0.00 44 1011.0
20260502185024 94 248 4.3 14.8 0.00 0.00 0.00 44 1011.0
20260502184553 94 252 7.8 14.8 0.00 0.00 0.00 43 1010.9
20260502184025 95 316 4.3 9.6 0.00 0.00 0.00 44 1010.9
20260502183526 95 274 6.1 9.6 0.00 0.00 0.00 45 1010.9
20260502183041 95 259 3.5 9.6 0.00 0.00 0.00 48 1010.8
20260502182528 94 221 3.5 9.6 0.00 0.00 0.00 49 1010.9
20260502182024 94 276 4.3 11.3 0.00 0.00 0.00 50 1011.0
20260502181540 93 256 5.2 11.3 0.00 0.00 0.00 50 1011.2
20260502181026 92 176 5.2 11.3 0.00 0.00 0.00 50 1011.2
20260502180525 93 271 4.3 11.3 0.00 0.00 0.00 51 1011.3
20260502164026 92 255 4.3 12.2 0.00 0.00 0.00 59 1011.8
20260502163525 92 229 4.3 12.2 0.00 0.00 0.00 60 1011.8
20260502163041 91 151 4.3 11.3 0.00 0.00 0.00 61 1011.8
20260502162525 91 206 6.1 11.3 0.00 0.00 0.00 59 1011.9
20260502162024 91 220 3.5 8.7 0.00 0.00 0.00 60 1011.9
20260502161540 91 236 2.6 8.7 0.00 0.00 0.00 61 1011.9
20260502161024 92 231 3.5 8.7 0.00 0.00 0.00 60 1012.1
20260502160529 91 229 3.5 8.7 0.00 0.00 0.00 60 1012.0
20260502152022 89 238 2.6 10.4 0.00 0.00 0.00 64 1012.4
20260502151540 88 182 4.3 9.6 0.00 0.00 0.00 63 1012.3
20260502151022 88 282 3.5 9.6 0.00 0.00 0.00 63 1012.3
20260502150522 88 243 4.3 10.4 0.00 0.00 0.00 63 1012.3
20260502130523 0 0.0 0.0 0.00 0.00 0.00 1011.9
20260502123524 0 0.0 0.0 0.00 0.00 0.00 1011.9
20260502123046 0 0.0 0.0 0.00 0.00 0.00 1012.0
20260502122523 0 0.0 0.0 0.00 0.00 0.00 1012.1
20260502122025 0 0.0 0.0 0.00 0.00 0.00 1012.1
20260502121544 0 0.0 0.0 0.00 0.00 0.00 1011.9
20260502121026 0 0.0 0.0 0.00 0.00 0.00 1012.1
20260502120527 0 0.0 0.0 0.00 0.00 0.00 1012.1
20260502115525 0 0.0 0.0 0.00 0.00 0.00 1011.9
20260502115026 0 0.0 0.0 0.00 0.00 0.00 1011.8
20260502114546 0 0.0 0.0 0.00 0.00 0.00 1011.7
20260502114025 0 0.0 0.0 0.00 0.00 0.00 1011.7
20260502113526 0 0.0 0.0 0.00 0.00 0.00 1011.8
20260502113042 0 0.0 0.0 0.00 0.00 0.00 1012.0
20260502112525 0 0.0 0.0 0.00 0.00 0.00 1012.0
20260502112026 0 0.0 0.0 0.00 0.00 0.00 1012.0
20260502111545 0 0.0 0.0 0.00 0.00 0.00 1011.9
20260502111026 0 0.0 0.0 0.00 0.00 0.00 1012.0
20260502110526 0 0.0 0.0 0.00 0.00 0.00 1012.1
20260502110041 0 0.0 0.0 0.00 0.00 0.00 1012.0
20260502105526 0 0.0 0.0 0.00 0.00 0.00 1012.0
20260502105025 0 0.0 0.0 0.00 0.00 0.00 1012.0
20260502104540 0 0.0 0.0 0.00 0.00 0.00 1011.9
20260502104025 0 0.0 0.0 0.00 0.00 0.00 1011.8
20260502103525 0 0.0 0.0 0.00 0.00 0.00 1011.9
20260502103052 0 0.0 0.0 0.00 0.00 0.00 1011.9
20260502102527 0 0.0 0.0 0.00 0.00 0.00 1011.7
20260502102025 0 0.0 0.0 0.00 0.00 0.00 1011.7
20260502101537 0 0.0 0.0 0.00 0.00 0.00 1011.6
20260502101026 0 0.0 0.0 0.00 0.00 0.00 1011.7
20260502100526 0 0.0 0.0 0.00 0.00 0.00 1011.8
20260502091025 0 0.0 0.0 0.00 0.00 0.00 1011.8
20260502090526 0 0.0 0.0 0.00 0.00 0.00 1011.7
20260502071026 71 0 0.0 0.0 0.00 0.00 0.00 90 1012.1
20260502070527 71 0 0.0 0.0 0.00 0.00 0.00 90 1012.0
20260502070040 71 0 0.0 0.0 0.00 0.00 0.00 90 1012.0
20260502065526 71 0 0.0 0.0 0.00 0.00 0.00 89 1011.8
20260502065025 71 0 0.0 0.0 0.00 0.00 0.00 89 1011.9
20260502064539 71 0 0.0 0.9 0.00 0.00 0.00 90 1011.8
20260502064026 71 0 0.0 0.9 0.00 0.00 0.00 90 1011.8
20260502063526 71 0 0.0 0.0 0.00 0.00 0.00 90 1012.0
20260502063044 71 0 0.0 0.0 0.00 0.00 0.00 90 1012.0
20260502062526 71 0 0.0 0.0 0.00 0.00 0.00 89 1012.1
20260502062027 71 0 0.0 0.0 0.00 0.00 0.00 90 1012.1
20260502061538 71 0 0.0 0.9 0.00 0.00 0.00 90 1012.1
20260502061025 71 0 0.0 0.9 0.00 0.00 0.00 90 1012.0
20260502060526 71 0 0.0 0.9 0.00 0.00 0.00 90 1012.1
20260502060042 71 0 0.0 0.0 0.00 0.00 0.00 90 1012.1
20260502055526 70 0 0.0 0.0 0.00 0.00 0.00 89 1012.2
20260502055027 71 0 0.0 0.0 0.00 0.00 0.00 89 1012.0
20260502054542 71 0 0.0 0.0 0.00 0.00 0.00 88 1012.0
20260502054024 71 0 0.0 0.0 0.00 0.00 0.00 88 1011.8
20260502053523 71 0 0.0 0.0 0.00 0.00 0.00 88 1011.9